Location: Boiro
(42.6475°N, 8.8834°W)
Time: 03:11:14
(UTC+01:00)

Vanguard 1 Rocket - Pass Details

Date: 12 December 2021
Orbit: 651 x 4224 km, 34.3° (Epoch: 21 January)

Event Time Altitude Azimuth Distance (km) Brightness Sun altitude
Rises 00:05:23 0° 191° (S) 3,196 - -63.8°
Reaches altitude 10° 00:09:00 10° 161° (SSE) 2,596 - -64.3°
Maximum altitude 00:11:38 13° 135° (SE) 2,673 - -64.7°
Drops below altitude 10° 00:14:48 10° 110° (ESE) 3,274 - -65.1°
Sets 00:20:48 0° 86° (E) 5,038 - -65.8°
